DECAYED

STARLINK-5486, 56473 (Decayed)

Orbit data source: Space-Track

STARLINK-5486, 56473 was a payload satellite owned by SpaceX/Seattle (US) in LEO that was launched on Wed, 10 May 2023 UTC via an FALCON 9 launch vehicle from the Air Force Western Test Range (AFWTR). Payload-class satellites include a variety of spacecraft equipped with specific instruments for various scientific and technological missions. These include communications satellites like Starlink; space stations such as the ISS; scientific satellites like the Hubble; Earth observation satellites from companies like Planet Labs, Umbra, and HawkEye 360; GPS; miniature CubeSats for education and research; and military/defense satellites.

Not visible in the next 10 days
Identifier
56473, 2023-064AB
Orbit
Decayed
Country
Flag of USUS
Related business
Manufacturer
SpaceX/Seattle
Mission
Decayed Commercial Communications
Bus & Motor
STARLINK, Unknown motor
Mass
305 kg wet, ~290 kg dry
Launch date (UTC)
2023-05-10 (3 years ago)
Launch vehicle
FALCON 9
Launch site
Air Force Western Test Range (AFWTR)
Object type
Payload
Rocket body
Debris
Shape & HBR
Box + 1 Pan, 10.1 m
Radar Cross Section
11.087 m², Large (>1 m²)

Expand to show TLE details & history
Last TLE update: 1 year ago

TLE from 1 year ago
0 STARLINK-5486
1 56473U 23064AB  25098.24290624  .15173568  44429-5  31710-3 0  9992
2 56473  69.9857 234.5983 0009321 285.6090 145.5364 16.46254669106228
Epoch: 2025-04-08T05:49Z
TLE epoch observation values (Epoch: 2025-04-08T05:49:47.099Z)
Latitude
62.93008°
Longitude
-4.47095°
Altitude
164.427 km
Speed
7.811 km/s
True Right ascension
18h 38m 53s
True Declination
62° 46' 40"
Sunlit
Object was in daylight at epoch
Visualization orbit readout
Latitude
Unknown
Longitude
Unknown
Altitude
Unknown
Speed
Unknown
Apparent Right ascension
Unknown
Apparent Declination
Unknown
Sunlit
N/A
Visualization observer readout
Local Sidereal Time
21:30:15
Azimuth
Unknown
Elevation
Unknown
Doppler factor
Unknown
Orbital elements
Apogee altitude
153.116 km
Perigee altitude
140.951 km
Semi-major axis
6,525.17 km
Eccentricity
0.00093
Inclination
69.9857°
RAAN
234.5983°
Arg. of periapsis
285.609°
True anomaly
145.59678°
Mean anomaly
145.5364°
Eccentric anomaly
145.5666°
Mean motion
4.11771 °/min
Orbital period
87.43 mins
BSTAR
0.0003171
Loading maneuver chart data...
Computing Atmospheric mass density...
Loading historical data...
Loading historical data...
Loading historical data...
Loading historical data...
Loading historical data...
Loading historical data...
Loading historical data...

Documentation

Showing up to 5 results
|